Simultaneous Nadir Overpasses (SNOs) Predictions

Prediction of SNOs between LANDSAT-8 and NOAA-19 Satellite Orbit:

Table of predicted SNOs for the next 14.0 days since TLE Epoch: 6/25/2016
Index Date (LANDSAT-8) Time (LANDSAT-8) Lat,Lon (LANDSAT-8) SZA (LANDSAT-8 ) Date (NOAA-19) Time (NOAA-19) Lat,Lon (NOAA-19) SZA (NOAA-19 ) Distance(km) Time Diff (sec)
1 06/26/2016 21:09:36 74.78,-132.47 51.43 06/26/2016 21:08:47 74.80,-132.51 51.44 2.53 49
2 06/26/2016 21:59:05 -74.71, 34.98 128.65 06/26/2016 21:59:40 -74.70, 35.06 128.66 2.62 35
3 06/29/2016 02:43:22 -74.80, -35.86 128.45 06/29/2016 02:42:44 -74.79, -35.91 128.47 1.83 38
4 06/29/2016 03:32:49 74.72, 131.59 51.47 06/29/2016 03:33:49 74.69, 131.58 51.45 3.23 60
5 07/01/2016 08:17:07 74.76, 60.60 51.65 07/01/2016 08:16:53 74.78, 60.62 51.67 2.82 14
6 07/01/2016 09:06:36 -74.69,-131.93 128.42 07/01/2016 09:07:46 -74.69,-131.85 128.41 2.44 70
7 07/03/2016 13:01:14 75.34, -8.92 52.44 07/03/2016 13:00:08 75.39, -11.95 52.42 85.13 66
8 07/03/2016 13:50:53 -74.77, 157.21 128.16 07/03/2016 13:50:50 -74.79, 157.16 128.15 2.01 3
9 07/05/2016 18:35:09 -74.91, 86.47 127.82 07/05/2016 18:33:56 -74.98, 85.88 127.76 18.89 73
10 07/05/2016 19:24:37 74.77,-106.23 52.04 07/05/2016 19:24:59 74.79,-106.32 52.06 3.26 22
11 07/08/2016 00:08:54 74.85,-177.11 52.36 07/08/2016 00:08:02 74.85,-177.21 52.35 2.86 52
